KB5PRZ Weather Reports


Display with metric or nautical units.
time (UTC)temp
F
wind
direction
speed
MPH
gust
MPH
rain 1hr
in
rain 24hr
in
rain mn
in
humidity
%
barometer
mb
20210801040125 86 160 0.0 0.0 0.00 0.03 0.03 62 1011.3
20210801035125 86 145 0.0 0.0 0.00 0.03 0.03 61 1011.4
20210801034125 86 142 0.0 0.0 0.00 0.03 0.03 61 1011.2
20210801033126 86 163 0.0 0.0 0.00 0.03 0.03 60 1011.1
20210801032125 87 145 0.0 0.0 0.00 0.03 0.03 60 1011.2
20210801031127 87 144 0.0 0.0 0.00 0.03 0.03 59 1011.0
20210801030225 87 149 0.0 0.0 0.00 0.03 0.03 59 1010.9
20210801025324 87 142 0.0 0.0 0.00 0.03 0.03 58 1010.8
20210801024424 88 159 0.0 0.0 0.00 0.03 0.03 58 1010.7
20210801023424 88 138 0.0 0.0 0.00 0.03 0.03 57 1010.5
20210801022425 88 138 0.0 0.0 0.00 0.03 0.03 57 1010.4
20210801021424 88 137 0.0 0.0 0.00 0.03 0.03 56 1010.5
20210801020424 89 141 0.0 0.0 0.00 0.03 0.03 55 1010.6
20210801015424 89 153 0.0 0.0 0.00 0.03 0.03 55 1010.5
20210801014523 89 155 0.0 0.0 0.00 0.03 0.03 55 1010.4
20210801013542 90 145 0.0 0.0 0.00 0.03 0.03 54 1010.2
20210801012525 90 146 0.0 0.0 0.00 0.03 0.03 54 1010.2
20210801011624 91 147 0.0 0.0 0.00 0.03 0.03 53 1010.2
20210801010627 91 154 0.0 0.0 0.00 0.03 0.03 53 1010.3
20210801005627 92 156 0.0 0.0 0.00 0.03 0.03 53 1010.3
20210801004626 92 130 0.0 0.0 0.00 0.03 0.03 52 1010.2
20210801003625 93 158 0.0 0.0 0.00 0.03 0.03 52 1010.2
20210801002626 94 151 0.0 0.0 0.00 0.03 0.03 53 1010.3
20210801001626 94 172 0.0 0.0 0.00 0.03 0.03 52 1010.3
20210801000726 94 96 0.0 0.0 0.00 0.03 0.03 53 1010.2
20210731235823 94 138 0.0 0.0 0.00 0.03 0.03 53 1010.3
20210731234823 94 159 0.0 0.0 0.00 0.03 0.03 53 1010.2
20210731233823 94 124 0.0 0.0 0.00 0.03 0.03 54 1010.4
20210731232828 94 138 0.0 0.0 0.00 0.03 0.03 54 1010.4
20210731231825 95 140 0.0 0.0 0.00 0.03 0.03 55 1010.5
20210731230825 93 142 0.0 0.0 0.00 0.03 0.03 55 1010.7
20210731225923 92 153 0.0 0.0 0.00 0.03 0.03 56 1010.7
20210731224926 92 177 0.0 0.0 0.00 0.03 0.03 56 1010.7
20210731223943 92 150 0.0 0.0 0.00 0.03 0.03 56 1010.7
20210731222924 92 175 0.0 0.0 0.00 0.03 0.03 56 1010.8
20210731221923 92 159 0.0 0.0 0.00 0.03 0.03 56 1010.9
20210731220926 93 178 0.0 0.0 0.00 0.03 0.03 57 1011.2
20210731220023 94 167 0.0 0.0 0.00 0.03 0.03 57 1011.3
20210731215122 94 136 0.0 0.0 0.00 0.03 0.03 58 1011.2
20210731214124 95 179 0.0 0.0 0.00 0.03 0.03 58 1011.4
20210731213123 92 180 0.0 0.0 0.00 0.03 0.03 60 1011.4
20210731212123 90 176 0.0 0.0 0.00 0.03 0.03 60 1011.6
20210731211123 90 180 0.0 0.0 0.00 0.03 0.03 61 1011.8
20210731210125 89 180 0.0 0.0 0.00 0.03 0.03 60 1011.9
20210731205127 88 180 0.0 0.0 0.00 0.03 0.03 60 1011.8
20210731204124 88 180 0.0 0.0 0.00 0.03 0.03 60 1012.0
20210731203124 88 180 0.0 0.0 0.00 0.03 0.03 59 1012.1
20210731202124 89 179 0.0 0.0 0.00 0.03 0.03 59 1012.3
20210731201123 90 180 0.0 0.0 0.00 0.03 0.03 59 1012.3
20210731200123 91 176 0.0 0.0 0.00 0.03 0.03 59 1012.4
20210731195124 93 174 0.0 0.0 0.00 0.03 0.03 60 1012.5
20210731194223 93 168 0.0 0.0 0.00 0.03 0.03 60 1012.6
20210731193223 92 166 0.0 0.0 0.00 0.03 0.03 61 1012.5
20210731192225 91 169 0.0 0.0 0.00 0.03 0.03 62 1012.6
20210731191224 91 165 0.0 0.0 0.01 0.03 0.03 62 1012.8
20210731190223 90 180 0.0 0.0 0.03 0.03 0.03 62 1012.9
20210731185224 89 180 0.0 0.0 0.03 0.03 0.03 63 1012.9
20210731184239 87 137 0.0 0.0 0.03 0.03 0.03 63 1013.0
20210731183226 86 180 0.0 0.0 0.03 0.03 0.03 63 1013.1
20210731182225 86 180 0.0 0.0 0.03 0.03 0.03 62 1013.1
20210731181223 91 180 0.0 0.0 0.02 0.02 0.01 61 1013.3
20210731180225 93 135 0.0 0.0 0.00 0.00 0.00 62 1013.4
20210731175226 92 135 0.0 0.0 0.00 0.00 0.00 63 1013.4
20210731174323 92 175 0.0 0.0 0.00 0.00 0.00 63 1013.4
20210731173323 92 133 0.0 0.0 0.00 0.00 0.00 64 1013.4
20210731172322 92 148 0.0 0.0 0.00 0.00 0.00 65 1013.7
20210731171325 91 174 0.0 0.0 0.00 0.00 0.00 66 1013.7
20210731170341 90 154 0.0 0.0 0.00 0.00 0.00 67 1013.6
20210731165325 91 172 0.0 0.0 0.00 0.00 0.00 67 1013.9
20210731164423 91 135 0.0 0.0 0.00 0.00 0.00 68 1013.9
20210731163424 91 116 0.0 0.0 0.00 0.00 0.00 70 1014.1
20210731162423 91 135 0.0 0.0 0.00 0.00 0.00 71 1014.1
20210731161423 91 142 0.0 0.0 0.00 0.00 0.00 72 1014.2
20210731160424 90 158 0.0 0.0 0.00 0.00 0.00 74 1013.9
20210731155423 90 180 0.0 0.0 0.00 0.00 0.00 75 1014.2
20210731154425 89 180 0.0 0.0 0.00 0.00 0.00 77 1014.2
20210731153425 88 135 0.0 0.0 0.00 0.00 0.00 78 1014.2
20210731152423 87 112 0.0 0.0 0.00 0.00 0.00 79 1014.2
20210731151522 85 135 0.0 0.0 0.00 0.00 0.00 80 1014.4
20210731150524 84 180 0.0 0.0 0.00 0.00 0.00 81 1014.3
20210731145622 83 90 0.0 0.0 0.00 0.00 0.00 82 1014.4
20210731144624 83 180 0.0 0.0 0.00 0.00 0.00 82 1014.3
20210731143722 82 180 0.0 0.0 0.00 0.00 0.00 83 1014.3
20210731142722 82 180 0.0 0.0 0.00 0.00 0.00 83 1014.3
20210731141723 82 180 0.0 0.0 0.00 0.00 0.00 84 1014.2
20210731140724 81 180 0.0 0.0 0.00 0.00 0.00 85 1014.3
20210731135723 81 180 0.0 0.0 0.00 0.00 0.00 85 1014.1
20210731134723 82 180 0.0 0.0 0.00 0.00 0.00 85 1014.1
20210731133723 81 166 0.0 0.0 0.00 0.00 0.00 86 1013.9
20210731132822 80 162 0.0 0.0 0.00 0.00 0.00 87 1013.7
20210731131825 80 163 0.0 0.0 0.00 0.00 0.00 87 1013.5
20210731130824 79 135 0.0 0.0 0.00 0.00 0.00 88 1013.6
20210731125923 79 175 0.0 0.0 0.00 0.00 0.00 88 1013.5
20210731124924 78 155 0.0 0.0 0.00 0.00 0.00 88 1013.6
20210731123924 77 149 0.0 0.0 0.00 0.00 0.00 88 1013.4
20210731122923 77 180 0.0 0.0 0.00 0.00 0.00 88 1013.4
20210731121924 77 180 0.0 0.0 0.00 0.00 0.00 88 1013.4
20210731120923 77 180 0.0 0.0 0.00 0.00 0.00 88 1013.2
20210731115923 77 180 0.0 0.0 0.00 0.00 0.00 88 1013.3
20210731115022 77 135 0.0 0.0 0.00 0.00 0.00 88 1013.2
20210731114022 77 170 0.0 0.0 0.00 0.00 0.00 87 1013.1
20210731113022 77 180 0.0 0.0 0.00 0.00 0.00 87 1013.1
20210731112022 77 158 0.0 0.0 0.00 0.00 0.00 87 1013.1
20210731111021 77 166 0.0 0.0 0.00 0.00 0.00 86 1013.0
20210731110024 77 175 0.0 0.0 0.00 0.00 0.00 86 1013.0
20210731105023 77 149 0.0 0.0 0.00 0.00 0.00 86 1012.9
20210731104022 77 157 0.0 0.0 0.00 0.00 0.00 86 1012.9
20210731103024 77 180 0.0 0.0 0.00 0.00 0.00 85 1012.9
20210731102022 77 135 0.0 0.0 0.00 0.00 0.00 85 1012.9
20210731101027 77 154 0.0 0.0 0.00 0.00 0.00 85 1012.7
20210731100125 77 164 0.0 0.0 0.00 0.00 0.00 84 1012.7
20210731095223 77 180 0.0 0.0 0.00 0.00 0.00 84 1012.8
20210731094321 77 167 0.0 0.0 0.00 0.00 0.00 84 1012.7
20210731093323 77 154 0.0 0.0 0.00 0.00 0.00 83 1012.6
20210731092423 77 134 0.0 0.0 0.00 0.00 0.00 83 1012.7
20210731091423 78 135 0.0 0.0 0.00 0.00 0.00 82 1012.7
20210731090423 78 135 0.0 0.0 0.00 0.00 0.00 81 1012.7
20210731085424 78 134 0.0 0.0 0.00 0.00 0.00 81 1012.8
20210731084422 78 143 0.0 0.0 0.00 0.00 0.00 80 1012.8
20210731083423 79 180 0.0 0.0 0.00 0.00 0.00 80 1012.6
20210731082521 79 135 0.0 0.0 0.00 0.00 0.00 79 1012.6
20210731081526 79 149 0.0 0.0 0.00 0.00 0.00 79 1012.5
20210731080625 79 175 0.0 0.0 0.00 0.00 0.00 79 1012.5
20210731075723 79 175 0.0 0.0 0.00 0.00 0.00 78 1012.6
20210731074821 79 135 0.0 0.0 0.00 0.00 0.00 78 1012.6
20210731073822 79 177 0.0 0.0 0.00 0.00 0.00 77 1012.6
20210731072822 79 179 0.0 0.0 0.00 0.00 0.00 77 1012.4
20210731071825 79 150 0.0 0.0 0.00 0.00 0.00 76 1012.5
20210731070823 79 162 0.0 0.0 0.00 0.00 0.00 76 1012.7
20210731065822 80 168 0.0 0.0 0.00 0.00 0.00 75 1012.6
20210731064822 80 172 0.0 0.0 0.00 0.00 0.00 75 1012.8
20210731063822 80 157 0.0 0.0 0.00 0.00 0.00 74 1012.8
20210731062822 80 149 0.0 0.0 0.00 0.00 0.00 74 1012.8
20210731061821 80 136 0.0 0.0 0.00 0.00 0.00 73 1012.9
20210731060823 80 129 0.0 0.0 0.00 0.00 0.00 72 1012.9
20210731055821 81 157 0.0 0.0 0.00 0.00 0.00 72 1012.8
20210731054823 81 145 0.0 0.0 0.00 0.00 0.00 71 1012.8
20210731053824 81 135 0.0 0.0 0.00 0.00 0.00 70 1013.1
20210731052821 81 149 0.0 0.0 0.00 0.00 0.00 69 1013.0
20210731051823 82 146 0.0 0.0 0.00 0.00 0.00 69 1013.0
20210731050822 82 147 0.0 0.0 0.00 0.00 0.00 68 1013.1
20210731045831 82 124 0.0 0.0 0.00 0.00 0.00 67 1013.2
20210731044834 82 161 0.0 0.0 0.00 0.00 0.00 66 1013.0
20210731043932 82 172 0.0 0.0 0.00 0.00 0.00 66 1013.0
20210731042931 83 145 0.0 0.0 0.00 0.00 0.00 65 1012.9
20210731041932 83 140 0.0 0.0 0.00 0.00 0.00 64 1012.8